CUBESX-HSE 3 (RS42S)

Last updated on Sat Jul 05 2025 00:03:06 GMT+0000 (Coordinated Universal Time)

1 57178U 23091N 25185.65417285 .00008188 00000+0 37038-3 0 9990 2 57178 97.5599 243.4872 0012347 229.9960 130.0192 15.21117318111423
UTC large
Height (km)
Speed (km/s)
/
Latitude / Longitude
Inclination (degrees)
Orbital Period (minutes)
Azimuth
Elevation
Range (km)
Doppler Factor

Next 0 passes for location: London (51.5072 / 0.1276)

Sorry there are no passes over London.